Location: Newark
(48.8833°N, 0.9236°W)
Time: 08:46:59
(UTC+00:00)

Transit 2A Rocket - All Passes

Search period start: 18 November 2019 00:00
Search period end: 28 November 2019 00:00
Orbit: 594 x 909 km, 66.7° (Epoch: 17 November)

Date Brightness Start Highest point End Pass type
(mag) Time Alt. Az. Time Alt. Az. Time Alt. Az.
18 Nov - 00:02:44 10° W 00:06:06 20° NW 00:09:23 10° NNE night (unlit)
18 Nov - 05:15:31 10° NNW 05:19:19 29° NE 05:23:10 10° ESE visible
18 Nov - 06:57:50 10° NW 07:01:59 45° WSW 07:06:19 10° S daylight
18 Nov - 21:36:01 10° SSW 21:40:35 49° ESE 21:44:53 10° NE night (unlit)
18 Nov - 23:19:17 10° WSW 23:23:18 28° NW 23:27:09 10° NNE night (unlit)
19 Nov - 04:33:16 10° NNW 04:36:30 20° NE 04:39:46 10° E visible
19 Nov - 06:15:11 10° NW 06:19:32 80° WSW 06:24:03 10° SSE visible
19 Nov - 08:00:33 10° W 08:01:20 10° WSW 08:02:08 10° WSW daylight
19 Nov - 20:54:09 10° S 20:58:12 29° ESE 21:02:03 10° NE night (unlit)
19 Nov - 22:36:09 10° WSW 22:40:36 43° NW 22:44:49 10° NNE night (unlit)
20 Nov - 00:22:28 10° NW 00:24:15 12° NNW 00:26:01 10° N night (unlit)
20 Nov - 03:51:09 10° N 03:53:35 14° NNE 03:56:02 10° ENE visible
20 Nov - 05:32:41 10° NNW 05:36:59 61° NE 05:41:27 10° SE visible
20 Nov - 07:16:03 10° WNW 07:19:07 19° WSW 07:22:17 10° SSW daylight
20 Nov - 20:12:53 10° SSE 20:15:54 17° ESE 20:18:48 10° ENE night (unlit)
20 Nov - 21:53:18 10° SW 21:57:59 71° NW 22:02:24 10° NNE night (unlit)
20 Nov - 23:38:27 10° WNW 23:41:17 16° NNW 23:44:02 10° N night (unlit)
21 Nov - 03:09:19 10° N 03:10:35 11° NNE 03:11:49 10° NE visible
21 Nov - 04:50:17 10° NNW 04:54:21 38° NE 04:58:32 10° ESE visible
21 Nov - 06:32:55 10° NW 06:36:48 32° WSW 06:40:51 10° S visible
21 Nov - 21:10:47 10° SSW 21:15:28 70° ESE 21:19:52 10° NE night (unlit)
21 Nov - 22:54:49 10° W 22:58:24 22° NW 23:01:52 10° NNE night (unlit)
22 Nov - 04:07:59 10° NNW 04:11:36 25° NE 04:15:18 10° E visible
22 Nov - 05:50:09 10° NW 05:54:24 55° WSW 05:58:52 10° SSE visible
22 Nov - 20:28:37 10° S 20:33:01 40° ESE 20:37:10 10° NE night (unlit)
22 Nov - 22:11:29 10° WSW 22:15:37 32° NW 22:19:36 10° NNE night (unlit)
22 Nov - 23:58:59 10° NNW 23:59:31 10° NNW 00:00:03 10° NNW night (unlit)
23 Nov - 03:25:46 10° N 03:28:46 18° NNE 03:31:47 10° ENE visible
23 Nov - 05:07:33 10° NW 05:11:56 86° ENE 05:16:29 10° SE visible
23 Nov - 06:51:48 10° W 06:53:51 13° WSW 06:55:56 10° SW visible
23 Nov - 19:46:55 10° SSE 19:50:40 24° ESE 19:54:14 10° ENE night (unlit)
23 Nov - 21:28:26 10° SW 21:32:57 51° NW 21:37:14 10° NNE night (unlit)
23 Nov - 23:14:20 10° NW 23:16:29 13° NNW 23:18:36 10° N night (unlit)
24 Nov - 02:43:43 10° N 02:45:48 13° NNE 02:47:56 10° NE visible
24 Nov - 04:25:06 10° NNW 04:29:21 51° NE 04:33:46 10° SE visible
24 Nov - 06:08:09 10° WNW 06:11:36 23° WSW 06:15:10 10° SSW visible
24 Nov - 19:06:02 10° SE 19:08:24 14° ESE 19:10:42 10° ENE night (unlit)
24 Nov - 20:45:42 10° SW 20:50:21 84° NW 20:54:47 10° NE night (unlit)
24 Nov - 22:30:27 10° WNW 22:33:32 18° NNW 22:36:33 10° N night (unlit)
25 Nov - 02:02:19 10° NNE 02:02:46 10° NNE 02:03:14 10° NNE night (unlit)
25 Nov - 03:42:44 10° NNW 03:46:40 33° NE 03:50:45 10° ESE visible
25 Nov - 05:25:11 10° NW 05:29:15 39° WSW 05:33:30 10° S visible
25 Nov - 20:03:17 10° SSW 20:07:52 57° ESE 20:12:12 10° NE night (unlit)
25 Nov - 21:46:55 10° W 21:50:41 25° NW 21:54:20 10° NNE night (unlit)
26 Nov - 03:00:27 10° NNW 03:03:54 22° NE 03:07:25 10° E visible
26 Nov - 04:42:28 10° NW 04:46:49 68° WSW 04:51:22 10° SSE visible
26 Nov - 19:21:17 10° S 19:25:27 33° ESE 19:29:26 10° NE visible
26 Nov - 21:03:41 10° WSW 21:07:57 37° NW 21:12:01 10° NNE night (unlit)
26 Nov - 22:50:27 10° NW 22:51:43 11° NNW 22:52:59 10° N night (unlit)
27 Nov - 02:18:17 10° N 02:21:01 16° NNE 02:23:47 10° ENE night (unlit)
27 Nov - 03:59:57 10° NNW 04:04:18 72° NE 04:08:52 10° SE visible
27 Nov - 05:43:38 10° WNW 05:46:21 16° WSW 05:49:08 10° SSW visible
27 Nov - 18:39:48 10° SSE 18:43:08 20° ESE 18:46:21 10° ENE visible
27 Nov - 20:20:45 10° SW 20:25:18 60° NW 20:29:39 10° NNE visible
27 Nov - 22:06:14 10° WNW 22:08:43 15° NNW 22:11:10 10° N night (unlit)
